Location: Seasalter
(51.3333°N, 1.0167°E)
Time: 06:51:54
(UTC+00:00)

ATLAS 5 CENTAUR R/B - Pass Details

Date: 25 April 2024
Orbit: 421 x 1169 km, 63.3° (Epoch: 18 May)

Event Time Altitude Azimuth Distance (km) Brightness Sun altitude
Rises 02:35:03 0° 307° (NW) 3,012 5.1 -16.5°
Reaches altitude 10° 02:37:29 10° 295° (WNW) 2,216 4.2 -16.2°
Maximum altitude 02:41:42 26° 239° (WSW) 1,559 3.0 -15.8°
Enters shadow 02:42:53 24° 220° (SW) 1,672 3.1 -15.7°
